Weather WX

World > North America > United States > Mississippi

Pisgah, Mississippi Regional Weather

Lat: 31.11N, Lon: 88.49W
Wx Zone: MSZ076
Warning FLW WEATHER ALERT - (More Info. Click Here) Warning
Feedback

Pisgah, MS Regional Weather

Expires:201906180100;;653051
ASUS44 KJAN 180010
RWRMS 

MISSISSIPPI HOURLY WEATHER ROUNDUP
NATIONAL WEATHER SERVICE JACKSON MS
700 PM CDT MON JUN 17 2019

NOTE: "FAIR: INDICATES FEW OR NO CLOUDS BELOW 12,000 FEET WITH NO
SIGNIFICANT WEATHER AND/OR OBSTRUCTIONS TO VISIBILITY.


MSZ059>079-180100-
SOUTH MISSISSIPPI
  
CITY           SKY/WX    TMP DP  RH WIND       PRES   REMARKS
BROOKHAVEN     FAIR      77  73  88 CALM      29.95S                  
HATTIESBURG    FAIR      83  72  69 S6        29.94S                  
6HR MIN TEMP:  80; 6HR MAX TEMP:  89; 6HR PCP: TRACE;                

LAUREL         PTCLDY    80  73  78 NW5       29.94S                  
MCCOMB         PTSUNNY   77  73  87 SE7       29.93S                  
6HR MIN TEMP:  73; 6HR MAX TEMP:  84; 6HR PCP:  0.27;                

NATCHEZ        FAIR      78  74  87 SE9       29.91R                  
6HR MIN TEMP:  74; 6HR MAX TEMP:  86; 6HR PCP:  0.26;                

PINE BELT      FAIR      80  75  84 NE5       29.95S                  
6HR MIN TEMP:  76; 6HR MAX TEMP:  89; 6HR PCP:  0.01;                

$$


SKY/WX - Weather  TMP - Temperature  DP - Dew Point  RH - Relative Humidity
WIND - Wind Direction/Speed PRES - Barometric Pressure VSB - Visibility
WCI - Wind Chill Index E13G22 Wind - East Wind 13 mph/Gusts of 22 mph